LZKZ

Details ICAO LZKZ (KSC)
Name KOSICE
Region Slovakia
Timezone Europe/Bratislava (UTC+2.0)
Plans Departing 206
Arriving 204
Stats Elevation 755 ft / 230 m (AMSL)
Location 48.663030° 21.241155°
Runways 1
Magnetic Variation 5.384° E
Sunrise 2018-05-27 02:42:28 UTC / 2018-05-27 04:42:28 Local
Sunset 2018-05-27 18:24:47 UTC / 2018-05-27 20:24:47 Local
Advertisement - Login to hide

Runways

ID Width Length Bearing (true) Bearing (mag) Surface Threshold Offset Overrun Length
01 148 ft / 45 m 10,174 ft / 3,101 m 13.00° 7.62° Asphalt 0 ft / 0 m 0 ft / 0 m
19 148 ft / 45 m 10,174 ft / 3,101 m 193.00° 187.62° Asphalt 0 ft / 0 m 0 ft / 0 m

Approach Navaids

Runway Type Ident Frequency Range Bearing (true) Bearing (mag) Slope Elevation
01 Localiser KE 109.50 MHz 18 nm / 33 km 13.00° 7.62° - 739 ft / 225 m (AMSL)
01 Glidescope KE 109.50 MHz 10 nm / 19 km 13.00° 7.62° 3.00° 739 ft / 225 m (AMSL)

Map

Weather


0- 5 10 15 20 25 30 35+ Temperature / ° C

Clouds and Precipitation
Forecast for 2018-05-27 18:00 UTC. Updated 3 hours ago

Ground ~20,000 ft ~40,000 ft Winds

METAR

LZKZ 271930Z 35003KT CAVOK 20/16 Q1021

TAF

Not found

Frequencies

Tower 133.75 MHz TWR
Approach 129.58 MHz APP
Approach 119.85 MHz APP
Tower 120.40 MHz TWR
Approach 129.57 MHz APP
Approach 133.75 MHz APP
Warning: Do not use this data for real-world aviation or navigation. No guarantee of current accuracy is given.